Edwards AFB, CA

1:43 AM PDT on April 25, 2017 (GMT -0700)
Edwards Air Force Base

Weather History for KEDW - December, 2012

Change the Weather History Date:

Saturday, December 8, 2012

  Actual Average Record
Temperature  
Mean Temperature 46 °F -  
Max Temperature 63 °F 57 °F 66 °F (2000)
Min Temperature 30 °F 29 °F 17 °F (1998)
Degree Days  
Heating Degree Days 18    
Moisture  
Dew Point 26 °F    
Average Humidity 53    
Maximum Humidity 83    
Minimum Humidity 27    
Precipitation  
Precipitation 0.00 in - - ()
Sea Level Pressure  
Sea Level Pressure 29.99 in    
Wind  
Wind Speed 2 mph (SE)    
Max Wind Speed 6 mph    
Max Gust Speed -    
Visibility 10 miles    
Events      
Averages and records for this station are not official NWS values.
T = Trace of Precipitation, MM = Missing Value Source: NWS Daily Summary

Daily Weather History Graph

Daily Weather History Graph

Search for Another Location

Airport or City:

Trip Planner

Search our weather history database for the weather conditions in past years. The results will help you decide how hot, cold, wet, or windy it might be!

Date:

Astronomy

Dec. 08, 2012 Rise Set
Actual Time 6:47 AM PST 4:40 PM PST
Civil Twilight 6:19 AM PST 5:08 PM PST
Nautical Twilight 5:47 AM PST 5:39 PM PST
Astronomical Twilight 5:17 AM PST 6:10 PM PST
Moon 1:27 AM PST (12/8) 1:04 PM PST (12/8)
Length of Visible Light 10h 48m
Length of Day
9h 52m
Waning Crescent, 27% of the Moon is Illuminated
Dec 8
Waning Crescent
Dec 13
New
Dec 19
First Quarter
Dec 28
Full
Jan 4
Last Quarter

Hourly Weather History & Observations

Time (PST) Temp. Windchill Dew Point Humidity Pressure Visibility Wind Dir Wind Speed Gust Speed Precip Events Conditions
12:58 AM 33.1 °F - 26.8 °F 78% 30.00 in 10.0 mi Calm Calm - N/A   Clear
1:58 AM 34.2 °F - 27.3 °F 76% 30.00 in 10.0 mi Calm Calm - N/A   Clear
2:58 AM 33.3 °F - 25.5 °F 73% 29.99 in 10.0 mi NE 2.3 mph - N/A   Clear
3:58 AM 32.5 °F 27.1 °F 26.4 °F 78% 29.99 in 10.0 mi North 5.8 mph - N/A   Clear
4:58 AM 32.9 °F - 27.3 °F 80% 30.00 in 10.0 mi NNW 2.3 mph - N/A   Clear
5:58 AM 34.9 °F 32.0 °F 30.2 °F 83% 30.01 in 50.0 mi NNE 3.5 mph - N/A   Clear
6:58 AM 30.2 °F 25.4 °F 25.3 °F 82% 30.03 in 90.0 mi SSE 4.6 mph - N/A   Mostly Cloudy
7:58 AM 34.9 °F - 28.9 °F 79% 30.03 in 90.0 mi SSW 1.2 mph - N/A   Mostly Cloudy
8:58 AM 39.9 °F 37.8 °F 30.6 °F 69% 30.05 in 90.0 mi SSW 3.5 mph - N/A   Mostly Cloudy
9:58 AM 46.4 °F - 30.6 °F 54% 30.04 in 90.0 mi South 2.3 mph - N/A   Mostly Cloudy
10:58 AM 52.3 °F - 29.8 °F 42% 30.02 in 90.0 mi Variable 2.3 mph - N/A   Scattered Clouds
11:58 AM 55.8 °F - 31.6 °F 40% 29.99 in 90.0 mi Variable 2.3 mph - N/A   Partly Cloudy
12:58 PM 60.6 °F - 29.8 °F 31% 29.96 in 90.0 mi Variable 2.3 mph - N/A   Partly Cloudy
1:58 PM 62.1 °F - 29.3 °F 29% 29.93 in 90.0 mi NNE 2.3 mph - N/A   Partly Cloudy
2:58 PM 63.5 °F - 28.9 °F 27% 29.92 in 80.0 mi NE 2.3 mph - N/A   Scattered Clouds
3:58 PM 63.9 °F - 28.8 °F 27% 29.92 in 70.0 mi ENE 1.2 mph - N/A   Scattered Clouds
4:58 PM 59.9 °F - 27.5 °F 29% 29.91 in 60.0 mi Calm Calm - N/A   Mostly Cloudy
5:58 PM 51.6 °F - 25.9 °F 37% 29.94 in 30.0 mi Variable 2.3 mph - N/A   Mostly Cloudy
6:58 PM 50.9 °F - 23.2 °F 34% 29.96 in 10.0 mi WSW 2.3 mph - N/A   Clear
7:58 PM 45.1 °F 43.7 °F 19.9 °F 37% 29.97 in 10.0 mi South 3.5 mph - N/A   Clear
8:58 PM 43.9 °F 41.3 °F 20.5 °F 39% 29.99 in 10.0 mi South 4.6 mph - N/A   Clear
9:58 PM 41.7 °F 39.8 °F 21.0 °F 44% 29.99 in 10.0 mi WSW 3.5 mph - N/A   Clear
10:58 PM 39.4 °F 37.2 °F 20.5 °F 47% 30.00 in 10.0 mi SSE 3.5 mph - N/A   Clear
11:58 PM 35.6 °F - 17.6 °F 48% 30.01 in 10.0 mi NE 1.2 mph - N/A   Clear